Weather in Rudovka

Russia / Tambov Oblast     53°06′20″N   42°23′42″E
temp.,
°C
wind,
m/s
gust,
m/s
humid.,
%
clouds,
%
prec.,
mm/h
press.,
hPa
HPBL,
m
4 march, thu
thu400:00−4wsw5119694 0.1 1012303
03:00−2wsw6129397 0.2 1010570
06:00−2wsw71394100 0.2 1008664
09:00−1wsw91593100 0.5 1006726
12:000wsw9168899 0.0 1005705
15:00+1wsw9158497 0.0 1003923
18:000wsw71389100 0.0 1002863
21:00−1wsw61293100 0.1 1002691
5 march, fri
fri500:00−1wsw51096100 0.2 1001485
03:00−1w41096100 0.5 1001470
06:00−2wnw4897100 0.4 1002333
09:00−3nnw4895100 0.6 1005433
12:00−3nw349196 0.1 1008489
15:00−3wnw468776 0.1 1010479
18:00−7wnw348937 0.0 101242
21:00−9wnw349457 0.0 101440
6 march, sat
sat600:00−9wnw339469 0.0 101530
03:00−10nw229284 0.0 101621
06:00−11n1290100 0.0 101621
09:00−10ne2291100 0.0 101640
12:00−7ene2286100 0.0 1016191
15:00−6ene128976 0.0 1015203
18:00−11e11930 0.0 101421
21:00−12sse129429 0.0 101521
7 march, sun
sun700:00−11sw239396 0.0 101525
03:00−10wsw359794 0.1 101689
06:00−12wsw369885 0.1 101694
09:00−11sw5119171 0.1 1015304
12:00−6sw8148394 0.0 1012818
15:00−4sw9167897 0.0 10081102
18:00−5sw101893100 0.4 10041205
21:00−3wsw101695100 2.2 10031097
8 march, mon
mon800:00−6w4986100 1.1 1003308
03:00−11wsw347988 1.1 100426
06:00−10ssw498399 0.0 1002159
09:00−5sw599599 0.3 1000496
12:00−3wsw81482100 0.5 9991577
15:00−7w9157582 0.9 10031378
18:00−9w8158392 0.1 1007781
21:00−11w6138683 0.1 1011402